Tracking 30922 objects as of 2-Jul-2025
HD Live streaming from Space Station
objects crossing your sky now

COSMOS 2251 DEB

Track COSMOS 2251 DEB now!
10-day predictions


NORAD ID: 34924
Int'l Code: 1993-036ADV
Perigee: 664.3 km
Apogee: 747.7 km
Inclination: 74.0 °
Period: 98.7 minutes
Semi major axis: 7076 km
RCS: 0.0155 m2 (small)
Launch date: June 16, 1993
Source: Commonwealth of Independent States (former USSR) (CIS)
Launch site: PLESETSK MISSILE AND SPACE COMPLEX (PKMTR)

Note: This is SATELLITE DEBRIS
Your satellite tracking list
Your tracking list is empty




NASA's NSSDC Master Catalog

Two Line Element Set (TLE):
1 34924U 93036ADV 25182.80027918  .00002581  00000-0  55176-3 0  9999
2 34924  74.0413  41.7059 0058936 167.1029 320.1720 14.58252309853321
Source of the keplerian elements: AFSPC